Weather History for Eveleth, MN

Change the Weather History Date:

Saturday, August 24, 2013

  Actual Average Record
Temperature  
Mean Temperature 68 °F -  
Max Temperature 86 °F 73 °F 87 °F (2003)
Min Temperature 51 °F 50 °F 42 °F (2007)
Cooling Degree Days 4    
Growing Degree Days 18 (Base 50)    
Moisture  
Dew Point 62 °F    
Average Humidity 72    
Maximum Humidity 100    
Minimum Humidity 48    
Precipitation  
Precipitation 0.00 in - - ()
Sea Level Pressure  
Sea Level Pressure 30.00 in    
Wind  
Wind Speed 6 mph (South)    
Max Wind Speed 21 mph    
Max Gust Speed 29 mph    
Visibility 10 miles    
Events      
Averages and records for this station are not official NWS values.
T = Trace of Precipitation, MM = Missing Value Source: NWS Daily Summary

Daily Weather History Graph

Daily Weather History Graph

Search for Another Location

Airport:

Trip Planner

Search our weather history database for the weather conditions in past years. The results will help you decide how hot, cold, wet, or windy it might be!

Date:

Astronomy

Aug. 24, 2013 Rise Set
Actual Time 6:18 AM CDT 8:05 PM CDT
Civil Twilight 5:45 AM CDT 8:37 PM CDT
Nautical Twilight 5:05 AM CDT 9:17 PM CDT
Astronomical Twilight 4:22 AM CDT 10:00 PM CDT
Moon 9:36 PM CDT (8/24) 10:39 AM CDT (8/24)
Length of Visible Light 14h 51m
Length of Day
13h 46m
Waning Gibbous, 84% of the Moon is Illuminated
Aug 24
Waning Gibbous
Aug 28
Last Quarter
Sep 5
New
Sep 12
First Quarter
Sep 19
Full

Hourly Weather History & Observations

Time (CDT) Temp. Heat Index Dew Point Humidity Pressure Visibility Wind Dir Wind Speed Gust Speed Precip Events Conditions
12:07 AM 53.6 °F - 50.0 °F 88% 30.08 in 10.0 mi Calm Calm - N/A   Clear
12:28 AM 53.6 °F - 51.8 °F 94% 30.08 in 10.0 mi Calm Calm - N/A   Clear
12:47 AM 53.6 °F - 51.8 °F 94% 30.09 in 10.0 mi NE 3.5 mph - N/A   Clear
1:08 AM 53.6 °F - 51.8 °F 94% 30.09 in 10.0 mi NE 3.5 mph - N/A   Clear
1:28 AM 53.6 °F - 51.8 °F 94% 30.09 in 10.0 mi NE 3.5 mph - N/A   Clear
1:47 AM 53.6 °F - 50.0 °F 88% 30.09 in 10.0 mi Calm Calm - N/A   Clear
2:08 AM 51.8 °F - 50.0 °F 94% 30.09 in 10.0 mi Calm Calm - N/A   Clear
2:28 AM 53.6 °F - 51.8 °F 94% 30.09 in 10.0 mi Calm Calm - N/A   Clear
2:47 AM 51.8 °F - 50.0 °F 94% 30.09 in 10.0 mi Calm Calm - N/A   Clear
3:08 AM 53.6 °F - 53.6 °F 100% 30.09 in 10.0 mi Calm Calm - N/A   Clear
3:28 AM 55.4 °F - 53.6 °F 94% 30.09 in 10.0 mi NE 3.5 mph - N/A   Scattered Clouds
3:47 AM 57.2 °F - 55.4 °F 94% 30.09 in 10.0 mi NE 3.5 mph - N/A   Scattered Clouds
4:07 AM 57.2 °F - 53.6 °F 88% 30.10 in 10.0 mi Calm Calm - N/A   Scattered Clouds
4:28 AM 57.2 °F - 55.4 °F 94% 30.10 in 10.0 mi NE 3.5 mph - N/A   Scattered Clouds
4:47 AM 57.2 °F - 55.4 °F 94% 30.09 in 10.0 mi Calm Calm - N/A   Scattered Clouds
5:08 AM 57.2 °F - 55.4 °F 94% 30.09 in 10.0 mi ENE 3.5 mph - N/A   Scattered Clouds
5:27 AM 57.2 °F - 55.4 °F 94% 30.08 in 10.0 mi NE 3.5 mph - N/A   Mostly Cloudy
5:47 AM 59.0 °F - 59.0 °F 100% 30.08 in 10.0 mi Calm Calm - N/A   Mostly Cloudy
6:08 AM 59.0 °F - 59.0 °F 100% 30.08 in 10.0 mi Calm Calm - N/A   Overcast
6:27 AM 59.0 °F - 59.0 °F 100% 30.08 in 10.0 mi Calm Calm - N/A   Overcast
6:48 AM 60.8 °F - 59.0 °F 94% 30.09 in 10.0 mi Calm Calm - N/A   Overcast
7:08 AM 62.6 °F - 60.8 °F 94% 30.08 in 10.0 mi Calm Calm - N/A   Overcast
7:28 AM 62.6 °F - 60.8 °F 94% 30.08 in 10.0 mi SSE 3.5 mph - N/A   Unknown
7:47 AM 64.4 °F - 60.8 °F 88% 30.07 in 10.0 mi SSE 6.9 mph - N/A   Clear
8:08 AM 66.2 °F - 60.8 °F 83% 30.07 in 10.0 mi South 8.1 mph - N/A   Clear
8:28 AM 68.0 °F - 62.6 °F 83% 30.06 in 10.0 mi South 8.1 mph - N/A   Clear
8:47 AM 69.8 °F - 62.6 °F 78% 30.06 in 10.0 mi South 10.4 mph - N/A   Clear
9:08 AM 71.6 °F - 64.4 °F 78% 30.05 in 10.0 mi South 10.4 mph - N/A   Clear
9:28 AM 71.6 °F - 62.6 °F 73% 30.04 in 10.0 mi South 10.4 mph 16.1 mph N/A   Scattered Clouds
9:47 AM 73.4 °F - 62.6 °F 69% 30.03 in 10.0 mi South 10.4 mph 18.4 mph N/A   Scattered Clouds
10:08 AM 75.2 °F - 64.4 °F 69% 30.03 in 10.0 mi South 12.7 mph 16.1 mph N/A   Scattered Clouds
10:28 AM 77.0 °F - 64.4 °F 65% 30.03 in 10.0 mi South 11.5 mph 18.4 mph N/A   Scattered Clouds
10:47 AM 77.0 °F - 64.4 °F 65% 30.03 in 10.0 mi South 9.2 mph - N/A   Scattered Clouds
11:07 AM 77.0 °F - 64.4 °F 65% 30.03 in 10.0 mi South 12.7 mph - N/A   Mostly Cloudy
11:28 AM 78.8 °F - 64.4 °F 61% 30.02 in 10.0 mi South 13.8 mph 23.0 mph N/A   Scattered Clouds
11:47 AM 78.8 °F - 64.4 °F 61% 30.02 in 10.0 mi South 13.8 mph - N/A   Scattered Clouds
12:07 PM 80.6 °F 82.3 °F 64.4 °F 58% 30.02 in 10.0 mi SSE 18.4 mph - N/A   Clear
12:28 PM 80.6 °F 82.3 °F 64.4 °F 58% 30.01 in 10.0 mi South 13.8 mph 21.9 mph N/A   Clear
12:48 PM 82.4 °F 84.6 °F 66.2 °F 58% 30.00 in 10.0 mi South 15.0 mph 23.0 mph N/A   Clear
1:07 PM 82.4 °F 83.9 °F 64.4 °F 54% 29.99 in 10.0 mi SSE 20.7 mph 24.2 mph N/A   Clear
1:28 PM 82.4 °F 83.9 °F 64.4 °F 54% 29.98 in 10.0 mi South 13.8 mph 23.0 mph N/A   Clear
1:47 PM 82.4 °F 83.9 °F 64.4 °F 54% 29.98 in 10.0 mi South 17.3 mph 26.5 mph N/A   Scattered Clouds
2:08 PM 82.4 °F 83.9 °F 64.4 °F 54% 29.97 in 10.0 mi South 17.3 mph 23.0 mph N/A   Scattered Clouds
2:28 PM 84.2 °F 85.6 °F 64.4 °F 51% 29.97 in 10.0 mi South 17.3 mph 26.5 mph N/A   Scattered Clouds
2:47 PM 82.4 °F 83.9 °F 64.4 °F 54% 29.96 in 10.0 mi South 15.0 mph 20.7 mph N/A   Scattered Clouds
3:08 PM 82.4 °F 83.9 °F 64.4 °F 54% 29.96 in 10.0 mi South 17.3 mph 26.5 mph N/A   Mostly Cloudy
3:28 PM 82.4 °F 83.9 °F 64.4 °F 54% 29.95 in 10.0 mi South 13.8 mph 24.2 mph N/A   Mostly Cloudy
3:47 PM 82.4 °F 83.9 °F 64.4 °F 54% 29.95 in 10.0 mi South 9.2 mph - N/A   Mostly Cloudy
4:08 PM 82.4 °F 83.9 °F 64.4 °F 54% 29.94 in 10.0 mi South 11.5 mph - N/A   Mostly Cloudy
4:28 PM 86.0 °F 87.3 °F 64.4 °F 48% 29.93 in 10.0 mi South 17.3 mph 26.5 mph N/A   Scattered Clouds
4:47 PM 84.2 °F 85.6 °F 64.4 °F 51% 29.93 in 10.0 mi South 16.1 mph 28.8 mph N/A   Clear
5:08 PM 84.2 °F 85.6 °F 64.4 °F 51% 29.92 in 10.0 mi South 15.0 mph 27.6 mph N/A   Clear
5:28 PM 82.4 °F 83.9 °F 64.4 °F 54% 29.91 in 10.0 mi South 17.3 mph 25.3 mph N/A   Scattered Clouds
5:47 PM 82.4 °F 83.9 °F 64.4 °F 54% 29.91 in 10.0 mi South 13.8 mph 25.3 mph N/A   Clear
6:08 PM 82.4 °F 83.9 °F 64.4 °F 54% 29.90 in 10.0 mi South 16.1 mph - N/A   Clear
6:27 PM 82.4 °F 83.9 °F 64.4 °F 54% 29.90 in 10.0 mi South 8.1 mph 19.6 mph N/A   Clear
6:48 PM 82.4 °F 83.9 °F 64.4 °F 54% 29.91 in 10.0 mi South 11.5 mph 20.7 mph N/A   Clear
7:08 PM 82.4 °F 84.6 °F 66.2 °F 58% 29.90 in 10.0 mi South 11.5 mph 18.4 mph N/A   Clear
7:27 PM 80.6 °F 82.3 °F 64.4 °F 58% 29.89 in 10.0 mi South 11.5 mph 19.6 mph N/A   Clear
7:48 PM 80.6 °F 82.7 °F 66.2 °F 61% 29.88 in 10.0 mi South 11.5 mph 17.3 mph N/A   Clear
8:08 PM 80.6 °F 82.7 °F 66.2 °F 61% 29.88 in 10.0 mi South 11.5 mph - N/A   Mostly Cloudy
8:27 PM 80.6 °F 83.2 °F 68.0 °F 65% 29.87 in 10.0 mi South 12.7 mph 20.7 mph N/A   Overcast
8:48 PM 80.6 °F 83.2 °F 68.0 °F 65% 29.88 in 10.0 mi South 11.5 mph 17.3 mph N/A   Overcast
9:07 PM 80.6 °F 83.2 °F 68.0 °F 65% 29.88 in 10.0 mi South 12.7 mph 25.3 mph N/A   Overcast
9:28 PM 80.6 °F 83.2 °F 68.0 °F 65% 29.89 in 10.0 mi SSW 11.5 mph 17.3 mph N/A   Overcast
9:48 PM 80.6 °F 83.2 °F 68.0 °F 65% 29.89 in 10.0 mi SSW 13.8 mph 21.9 mph N/A   Overcast
10:07 PM 80.6 °F 83.2 °F 68.0 °F 65% 29.90 in 10.0 mi SSW 13.8 mph 20.7 mph N/A   Overcast
10:28 PM 78.8 °F - 68.0 °F 69% 29.90 in 10.0 mi SSW 13.8 mph 21.9 mph N/A   Overcast
10:48 PM 78.8 °F - 66.2 °F 65% 29.91 in 10.0 mi SSW 12.7 mph 18.4 mph N/A   Overcast
11:07 PM 77.0 °F - 64.4 °F 65% 29.91 in 10.0 mi SSW 11.5 mph 16.1 mph N/A   Overcast
11:27 PM 77.0 °F - 66.2 °F 69% 29.91 in 10.0 mi SSW 9.2 mph - N/A   Overcast
11:48 PM 77.0 °F - 66.2 °F 69% 29.91 in 10.0 mi SSW 10.4 mph - N/A   Overcast